Miscellaneous Local Product
Issued by NWS Hastings, NE

Home | Current Version | Previous Version | Graphics & Text | Print | Product List | Glossary On
Versions: 1 2 3 4 5 6 7 8 9 10 11 12 13 14 15 16 17 18 19 20 21 22 23 24 25 26 27 28 29 30 31 32 33 34 35 36 37 38 39 40 41 42 43 44 45 46 47 48 49 50
000
AXUS43 KGID 230902
MISGRI

GID CWA HOURLY WEATHER ROUNDUP
NATIONAL WEATHER SERVICE HASTINGS NE
400 AM CDT WED APR 23 2014

NOTE: "FAIR" INDICATES FEW OR NO CLOUDS BELOW 12,000 FEET WITH NO
SIGNIFICANT WEATHER AND/OR OBSTRUCTIONS TO VISIBILITY.

...SOUTH CENTRAL NEBRASKA...

CITY           SKY/WX    TMP DP  RH WIND       PRES   REMARKS
GRAND ISLAND   TSTM      53  36  52 SE24G32   29.77F
HASTINGS       LGT RAIN  55  37  50 S26G35    29.77F
KEARNEY        MOCLDY    54  41  62 S23G29    29.75F
ORD            MOCLDY    54  33  45 SE14G21   29.74F
YORK           PTCLDY    52  32  46 SE16      29.85F
AURORA         MOCLDY    55  33  44 SE18G24   29.82F
LEXINGTON      MOCLDY    59  34  39 SE23G31   29.69F
HOLDREGE       MOCLDY    57  36  45 SE24G33   29.72F
HEBRON         MOCLDY    58  32  37 SE12      29.87R

...NEBRASKA PANHANDLE...

CITY           SKY/WX    TMP DP  RH WIND       PRES   REMARKS
CHADRON        CLOUDY    62  45  53 S25G35    29.44F
ALLIANCE       CLOUDY    56  45  66 SE20      29.52F
SCOTTSBLUFF    CLOUDY    56  42  59 E12       29.51F
SIDNEY         CLOUDY    54  45  71 S14       29.57F

...WESTERN AND NORTH CENTRAL NEBRASKA...

CITY           SKY/WX    TMP DP  RH WIND       PRES   REMARKS
VALENTINE      MOCLDY    55  33  43 SE15      29.61F
AINSWORTH      MOCLDY    55  33  42 SE14G23   29.65F
ONEILL         MOCLDY    56  28  34 SE25G33   29.74F
BROKEN BOW     CLOUDY    52  33  48 SE12G23   29.70F
IMPERIAL       MOCLDY    59  46  62 S20G30    29.59F
NORTH PLATTE   PTCLDY    58  35  42 SE15      29.64F
MCCOOK         MOCLDY    60  39  45 S26G38    29.63F

...EASTERN NEBRASKA...

CITY           SKY/WX    TMP DP  RH WIND       PRES   REMARKS
NORFOLK        MOCLDY    54  34  46 SE17      29.84F
SO SIOUX CITY  PTCLDY    53  34  48 SE15      29.91F
TEKAMAH        PTCLDY    53  33  46 SE16      29.91F
COLUMBUS       PTCLDY    55  32  41 SE16      29.87S
ALBION         MOCLDY    54  33  45 SE17G25   29.82F
OMAHA EPPLEY   PTCLDY    55  34  45 SE17      29.93F
OFFUTT AFB     PTCLDY    53  36  53 SE12      29.93F
MILLARD        CLEAR     54  35  47 SE8       29.92F
LINCOLN        CLEAR     57  34  41 SE16      29.91F
NEBRASKA CITY  MOCLDY    54  37  53 SE15      29.94F
BEATRICE       PTCLDY    57  32  39 SE14      29.89F
FALLS CITY     MOCLDY    52  36  54 SE12      29.94F

...NORTHERN KANSAS...

CITY           SKY/WX    TMP DP  RH WIND       PRES   REMARKS
GOODLAND       MOCLDY    57  45  64 S24G33    29.65F
HILL CITY      MOCLDY    58  36  43 S13G26    29.72F
PHILLIPSBURG   CLEAR     57  34  41 E15G22    29.76F
SMITH CENTER   PTCLDY    54  37  54 E21G28    29.80F
BELOIT         MOCLDY    57  37  47 E13G20    29.82F
HAYS           MOCLDY   N/A N/A N/A SE17      29.77F
RUSSELL        MOCLDY    58  34  40 SE21G29   29.78F
CONCORDIA      CLOUDY    59  35  40 S28G37    29.84F
SALINA         LGT RAIN  59  36  42 SE20G30   29.87F
TOPEKA         CLOUDY    55  40  56 E7        29.96F



USA.gov is the U.S. government's official web portal to all federal, state and local government web resources and services.